| time (UTC) | temp F | wind direction | speed knots | gust knots | rain 1hr in | rain 24hr in | rain mn in | humidity % | barometer mb |
| 20260901143547 | 53 | 0 | 0.0 | 0.9 | 0.00 | 0.00 | 0.00 | 96 | 1009.7 |
| 20260901143102 | 53 | 0 | 0.0 | 0.9 | 0.00 | 0.00 | 0.00 | 96 | 1009.7 |
| 20260901142549 | 53 | 0 | 0.0 | 0.9 | 0.00 | 0.00 | 0.00 | 96 | 1009.8 |
| 20260901142050 | 53 | 307 | 0.0 | 0.9 | 0.00 | 0.00 | 0.00 | 96 | 1009.6 |
| 20260901141610 | 53 | 0 | 0.0 | 0.0 | 0.00 | 0.00 | 0.00 | 96 | 1009.6 |
| 20260901141046 | 53 | 0 | 0.0 | 0.0 | 0.00 | 0.00 | 0.00 | 96 | 1009.6 |
| 20260901140543 | 53 | 0 | 0.0 | 0.0 | 0.00 | 0.00 | 0.00 | 96 | 1009.6 |
| 20260901140103 | 53 | 0 | 0.0 | 0.0 | 0.00 | 0.00 | 0.00 | 96 | 1009.6 |
| 20260901135549 | 53 | 0 | 0.0 | 0.9 | 0.00 | 0.00 | 0.00 | 96 | 1009.5 |
| 20260901135047 | 53 | 0 | 0.0 | 0.9 | 0.00 | 0.00 | 0.00 | 96 | 1009.4 |
| 20260901134603 | 53 | 0 | 0.0 | 0.9 | 0.00 | 0.00 | 0.00 | 96 | 1009.4 |
| 20260901134046 | 53 | 0 | 0.0 | 0.9 | 0.00 | 0.00 | 0.00 | 96 | 1009.4 |
| 20260901133546 | 53 | 0 | 0.0 | 0.9 | 0.00 | 0.00 | 0.00 | 97 | 1009.3 |
| 20260901133104 | 53 | 0 | 0.0 | 2.6 | 0.00 | 0.00 | 0.00 | 97 | 1009.3 |
| 20260901132549 | 53 | 0 | 0.0 | 2.6 | 0.00 | 0.00 | 0.00 | 96 | 1009.2 |
| 20260901132046 | 53 | 307 | 0.9 | 2.6 | 0.00 | 0.00 | 0.00 | 96 | 1009.2 |
| 20260901131611 | 52 | 308 | 0.0 | 2.6 | 0.00 | 0.00 | 0.00 | 96 | 1009.1 |
| 20260901131045 | 52 | 0 | 0.0 | 1.7 | 0.00 | 0.00 | 0.00 | 96 | 1009.1 |
| 20260901130547 | 52 | 0 | 0.0 | 0.0 | 0.00 | 0.00 | 0.00 | 96 | 1009.0 |
| 20260901125546 | 52 | 0 | 0.0 | 0.0 | 0.00 | 0.00 | 0.00 | 96 | 1008.9 |
| 20260901125047 | 51 | 0 | 0.0 | 0.0 | 0.00 | 0.00 | 0.00 | 96 | 1008.8 |
| 20260901124559 | 51 | 0 | 0.0 | 0.0 | 0.00 | 0.00 | 0.00 | 96 | 1008.7 |
| 20260901124044 | 51 | 0 | 0.0 | 0.0 | 0.00 | 0.00 | 0.00 | 96 | 1008.7 |
| 20260901123550 | 51 | 0 | 0.0 | 0.0 | 0.00 | 0.00 | 0.00 | 96 | 1008.6 |
| 20260901123106 | 51 | 0 | 0.0 | 0.0 | 0.00 | 0.00 | 0.00 | 96 | 1008.6 |
| 20260901122546 | 51 | 0 | 0.0 | 0.0 | 0.00 | 0.00 | 0.00 | 96 | 1008.5 |
| 20260901122047 | 51 | 0 | 0.0 | 0.0 | 0.00 | 0.00 | 0.00 | 96 | 1008.6 |
| 20260901121613 | 51 | 0 | 0.0 | 0.0 | 0.00 | 0.00 | 0.00 | 96 | 1008.6 |
| 20260901121044 | 51 | 0 | 0.0 | 0.0 | 0.00 | 0.00 | 0.00 | 95 | 1008.6 |
| 20260901120547 | 51 | 0 | 0.0 | 0.0 | 0.00 | 0.00 | 0.00 | 95 | 1008.6 |
| 20260901120124 | 51 | 0 | 0.0 | 0.0 | 0.00 | 0.00 | 0.00 | 95 | 1008.6 |
| 20260901115546 | 51 | 0 | 0.0 | 0.0 | 0.00 | 0.00 | 0.00 | 95 | 1008.6 |
| 20260901115046 | 51 | 0 | 0.0 | 0.0 | 0.00 | 0.00 | 0.00 | 95 | 1008.6 |
| 20260901114601 | 51 | 0 | 0.0 | 0.0 | 0.00 | 0.00 | 0.00 | 95 | 1008.6 |
| 20260901114046 | 51 | 0 | 0.0 | 0.0 | 0.00 | 0.00 | 0.00 | 95 | 1008.7 |
| 20260901113547 | 51 | 0 | 0.0 | 0.0 | 0.00 | 0.00 | 0.00 | 95 | 1008.8 |
| 20260901113104 | 51 | 0 | 0.0 | 0.0 | 0.00 | 0.00 | 0.00 | 95 | 1008.8 |
| 20260901112545 | 51 | 0 | 0.0 | 0.0 | 0.00 | 0.00 | 0.00 | 95 | 1008.9 |
| 20260901112047 | 51 | 0 | 0.0 | 0.0 | 0.00 | 0.00 | 0.00 | 95 | 1008.9 |
| 20260901111610 | 51 | 0 | 0.0 | 0.0 | 0.00 | 0.00 | 0.00 | 95 | 1009.0 |
| 20260901111048 | 51 | 0 | 0.0 | 0.0 | 0.00 | 0.00 | 0.00 | 95 | 1009.0 |
| 20260901110546 | 51 | 0 | 0.0 | 0.0 | 0.00 | 0.00 | 0.00 | 95 | 1008.9 |
| 20260901110100 | 51 | 0 | 0.0 | 0.0 | 0.00 | 0.00 | 0.00 | 95 | 1009.0 |
| 20260901105548 | 51 | 0 | 0.0 | 0.0 | 0.00 | 0.00 | 0.00 | 95 | 1008.8 |
| 20260901105047 | 51 | 0 | 0.0 | 0.0 | 0.00 | 0.00 | 0.00 | 95 | 1008.9 |
| 20260901104606 | 52 | 0 | 0.0 | 0.0 | 0.00 | 0.00 | 0.00 | 95 | 1008.8 |
| 20260901104046 | 52 | 0 | 0.0 | 0.0 | 0.00 | 0.00 | 0.00 | 95 | 1008.8 |
| 20260901103545 | 52 | 0 | 0.0 | 0.0 | 0.00 | 0.00 | 0.00 | 94 | 1008.8 |
| 20260901103124 | 52 | 0 | 0.0 | 0.0 | 0.00 | 0.00 | 0.00 | 94 | 1008.8 |
| 20260901102547 | 52 | 0 | 0.0 | 0.0 | 0.00 | 0.00 | 0.00 | 95 | 1008.8 |
| 20260901102047 | 52 | 0 | 0.0 | 0.0 | 0.00 | 0.00 | 0.00 | 95 | 1008.8 |
| 20260901101604 | 52 | 0 | 0.0 | 0.0 | 0.00 | 0.00 | 0.00 | 94 | 1008.9 |
| 20260901101045 | 52 | 0 | 0.0 | 0.0 | 0.00 | 0.00 | 0.00 | 94 | 1008.8 |
| 20260901100546 | 52 | 0 | 0.0 | 0.0 | 0.00 | 0.00 | 0.00 | 94 | 1008.8 |
| 20260901100106 | 52 | 0 | 0.0 | 0.0 | 0.00 | 0.00 | 0.00 | 94 | 1008.9 |
| 20260901095547 | 52 | 0 | 0.0 | 0.0 | 0.00 | 0.00 | 0.00 | 94 | 1008.8 |
| 20260901095046 | 52 | 0 | 0.0 | 0.0 | 0.00 | 0.00 | 0.00 | 94 | 1008.8 |
| 20260901094602 | 52 | 0 | 0.0 | 0.0 | 0.00 | 0.00 | 0.00 | 94 | 1008.8 |
| 20260901094043 | 52 | 0 | 0.0 | 0.0 | 0.00 | 0.00 | 0.00 | 94 | 1008.8 |
| 20260901093549 | 52 | 0 | 0.0 | 0.0 | 0.00 | 0.00 | 0.00 | 94 | 1008.7 |
| 20260901093128 | 52 | 0 | 0.0 | 0.0 | 0.00 | 0.00 | 0.00 | 94 | 1008.7 |
| 20260901092547 | 52 | 0 | 0.0 | 1.7 | 0.00 | 0.00 | 0.00 | 94 | 1008.7 |
| 20260901092047 | 52 | 0 | 0.0 | 1.7 | 0.00 | 0.00 | 0.00 | 94 | 1008.7 |
| 20260901091615 | 53 | 0 | 0.0 | 1.7 | 0.00 | 0.00 | 0.00 | 94 | 1008.7 |
| 20260901091049 | 52 | 0 | 0.0 | 0.0 | 0.00 | 0.00 | 0.00 | 93 | 1008.7 |
| 20260901090550 | 53 | 0 | 0.0 | 0.0 | 0.00 | 0.00 | 0.00 | 93 | 1008.6 |
| 20260901090108 | 53 | 0 | 0.0 | 0.0 | 0.00 | 0.00 | 0.00 | 93 | 1008.6 |
| 20260901085546 | 53 | 0 | 0.0 | 0.0 | 0.00 | 0.00 | 0.00 | 93 | 1008.7 |
| 20260901085046 | 53 | 0 | 0.0 | 0.0 | 0.00 | 0.00 | 0.00 | 93 | 1008.5 |
| 20260901084600 | 53 | 0 | 0.0 | 0.0 | 0.00 | 0.00 | 0.00 | 93 | 1008.6 |
| 20260901084047 | 53 | 0 | 0.0 | 0.0 | 0.00 | 0.00 | 0.00 | 93 | 1008.6 |
| 20260901083546 | 53 | 0 | 0.0 | 0.0 | 0.00 | 0.00 | 0.00 | 93 | 1008.7 |
| 20260901083101 | 53 | 0 | 0.0 | 0.0 | 0.00 | 0.00 | 0.00 | 92 | 1008.7 |
| 20260901082551 | 53 | 0 | 0.0 | 0.0 | 0.00 | 0.00 | 0.00 | 92 | 1008.6 |
| 20260901082047 | 53 | 0 | 0.0 | 0.0 | 0.00 | 0.00 | 0.00 | 92 | 1008.6 |
| 20260901081615 | 53 | 0 | 0.0 | 0.0 | 0.00 | 0.00 | 0.00 | 92 | 1008.7 |
| 20260901081049 | 53 | 0 | 0.0 | 0.0 | 0.00 | 0.00 | 0.00 | 92 | 1008.7 |
| 20260901080550 | 53 | 0 | 0.0 | 0.0 | 0.00 | 0.00 | 0.00 | 92 | 1008.7 |
| 20260901080107 | 53 | 0 | 0.0 | 0.0 | 0.00 | 0.00 | 0.00 | 92 | 1008.6 |
| 20260901075545 | 54 | 0 | 0.0 | 0.0 | 0.00 | 0.00 | 0.00 | 91 | 1008.6 |
| 20260901075049 | 54 | 0 | 0.0 | 0.0 | 0.00 | 0.00 | 0.00 | 91 | 1008.7 |
| 20260901074601 | 54 | 0 | 0.0 | 0.0 | 0.00 | 0.00 | 0.00 | 91 | 1008.7 |
| 20260901074046 | 54 | 0 | 0.0 | 0.0 | 0.00 | 0.00 | 0.00 | 91 | 1008.6 |
| 20260901073546 | 54 | 0 | 0.0 | 0.0 | 0.00 | 0.00 | 0.00 | 91 | 1008.5 |
| 20260901073114 | 54 | 0 | 0.0 | 0.0 | 0.00 | 0.00 | 0.00 | 91 | 1008.6 |
| 20260901072547 | 54 | 0 | 0.0 | 0.0 | 0.00 | 0.00 | 0.00 | 90 | 1008.6 |
| 20260901072047 | 55 | 0 | 0.0 | 0.0 | 0.00 | 0.00 | 0.00 | 90 | 1008.6 |
| 20260901071604 | 55 | 0 | 0.0 | 0.0 | 0.00 | 0.00 | 0.00 | 90 | 1008.7 |
| 20260901071047 | 55 | 0 | 0.0 | 0.0 | 0.00 | 0.00 | 0.00 | 90 | 1008.7 |
| 20260901070546 | 55 | 0 | 0.0 | 0.0 | 0.00 | 0.00 | 0.00 | 90 | 1008.6 |
| 20260901070103 | 55 | 0 | 0.0 | 0.0 | 0.00 | 0.00 | 0.00 | 89 | 1008.7 |
| 20260901065546 | 55 | 0 | 0.0 | 0.0 | 0.00 | 0.00 | 0.00 | 89 | 1008.6 |
| 20260901065048 | 55 | 0 | 0.0 | 0.0 | 0.00 | 0.00 | 0.00 | 89 | 1008.6 |
| 20260901064602 | 56 | 0 | 0.0 | 0.0 | 0.00 | 0.00 | 0.00 | 89 | 1008.6 |
| 20260901064047 | 56 | 0 | 0.0 | 0.0 | 0.00 | 0.00 | 0.00 | 88 | 1008.5 |
| 20260901063546 | 56 | 0 | 0.0 | 0.0 | 0.00 | 0.00 | 0.00 | 88 | 1008.5 |
| 20260901063102 | 56 | 0 | 0.0 | 0.0 | 0.00 | 0.00 | 0.00 | 88 | 1008.5 |
| 20260901062546 | 56 | 0 | 0.0 | 0.0 | 0.00 | 0.00 | 0.00 | 88 | 1008.7 |
| 20260901062046 | 56 | 0 | 0.0 | 0.0 | 0.00 | 0.00 | 0.00 | 87 | 1008.8 |
| 20260901061604 | 56 | 0 | 0.0 | 0.0 | 0.00 | 0.00 | 0.00 | 87 | 1008.8 |
| 20260901061046 | 57 | 0 | 0.0 | 0.0 | 0.00 | 0.00 | 0.00 | 87 | 1008.7 |
| 20260901060546 | 57 | 0 | 0.0 | 0.0 | 0.00 | 0.00 | 0.00 | 86 | 1008.8 |
| 20260901060104 | 57 | 0 | 0.0 | 0.0 | 0.00 | 0.00 | 0.00 | 86 | 1008.8 |
| 20260901055545 | 57 | 0 | 0.0 | 0.9 | 0.00 | 0.00 | 0.00 | 86 | 1008.9 |
| 20260901055044 | 57 | 0 | 0.0 | 1.7 | 0.00 | 0.00 | 0.00 | 85 | 1008.9 |
| 20260901054602 | 58 | 0 | 0.0 | 1.7 | 0.00 | 0.00 | 0.00 | 85 | 1009.0 |
| 20260901054047 | 58 | 0 | 0.0 | 1.7 | 0.00 | 0.00 | 0.00 | 85 | 1008.9 |
| 20260901053544 | 58 | 307 | 0.0 | 1.7 | 0.00 | 0.00 | 0.00 | 85 | 1008.9 |
| 20260901053123 | 58 | 0 | 0.0 | 0.0 | 0.00 | 0.00 | 0.00 | 85 | 1008.8 |
| 20260901052546 | 58 | 0 | 0.0 | 0.0 | 0.00 | 0.00 | 0.00 | 85 | 1008.8 |
| 20260901052046 | 58 | 0 | 0.0 | 0.0 | 0.00 | 0.00 | 0.00 | 84 | 1008.8 |
| 20260901051604 | 58 | 0 | 0.0 | 0.0 | 0.00 | 0.00 | 0.00 | 84 | 1008.8 |
| 20260901051047 | 59 | 0 | 0.0 | 0.0 | 0.00 | 0.00 | 0.00 | 83 | 1008.8 |
| 20260901050550 | 59 | 0 | 0.0 | 0.0 | 0.00 | 0.00 | 0.00 | 82 | 1008.9 |
| 20260901045547 | 60 | 0 | 0.0 | 0.0 | 0.00 | 0.00 | 0.00 | 81 | 1009.0 |
| 20260901045044 | 60 | 0 | 0.0 | 0.0 | 0.00 | 0.00 | 0.00 | 81 | 1008.9 |
| 20260901044602 | 60 | 0 | 0.0 | 0.0 | 0.00 | 0.00 | 0.00 | 80 | 1008.8 |
| 20260901044046 | 61 | 0 | 0.0 | 0.0 | 0.00 | 0.00 | 0.00 | 82 | 1008.8 |
| 20260901043546 | 61 | 0 | 0.0 | 0.0 | 0.00 | 0.00 | 0.00 | 81 | 1008.9 |
| 20260901043130 | 61 | 0 | 0.0 | 0.0 | 0.00 | 0.00 | 0.00 | 79 | 1008.9 |
| 20260901042546 | 61 | 0 | 0.0 | 0.0 | 0.00 | 0.00 | 0.00 | 77 | 1008.9 |
| 20260901042046 | 61 | 0 | 0.0 | 0.0 | 0.00 | 0.00 | 0.00 | 78 | 1008.8 |
| 20260901041610 | 62 | 0 | 0.0 | 0.9 | 0.00 | 0.00 | 0.00 | 76 | 1008.7 |
| 20260901041044 | 62 | 0 | 0.0 | 0.9 | 0.00 | 0.00 | 0.00 | 76 | 1008.7 |
| 20260901040547 | 62 | 0 | 0.0 | 0.9 | 0.00 | 0.00 | 0.00 | 75 | 1008.7 |
| 20260901040106 | 63 | 0 | 0.0 | 0.9 | 0.00 | 0.00 | 0.00 | 74 | 1008.7 |
| 20260901035545 | 63 | 0 | 0.0 | 0.9 | 0.00 | 0.00 | 0.00 | 74 | 1008.6 |
| 20260901035048 | 63 | 0 | 0.0 | 2.6 | 0.00 | 0.00 | 0.00 | 73 | 1008.7 |
| 20260901034607 | 64 | 0 | 0.0 | 2.6 | 0.00 | 0.00 | 0.00 | 75 | 1008.7 |
| 20260901034046 | 64 | 0 | 0.0 | 3.5 | 0.00 | 0.00 | 0.00 | 72 | 1008.7 |
| 20260901033544 | 64 | 0 | 0.0 | 3.5 | 0.00 | 0.00 | 0.00 | 71 | 1008.5 |
| 20260901033110 | 64 | 308 | 0.9 | 3.5 | 0.00 | 0.00 | 0.00 | 70 | 1008.5 |
| 20260901032545 | 65 | 307 | 0.9 | 3.5 | 0.00 | 0.00 | 0.00 | 70 | 1008.4 |
| 20260901032045 | 65 | 307 | 0.0 | 2.6 | 0.00 | 0.00 | 0.00 | 71 | 1008.3 |
| 20260901031604 | 65 | 308 | 0.0 | 7.0 | 0.00 | 0.00 | 0.00 | 70 | 1008.3 |
| 20260901031045 | 65 | 0 | 1.7 | 7.0 | 0.00 | 0.00 | 0.00 | 70 | 1008.2 |
| 20260901030548 | 65 | 299 | 0.9 | 6.1 | 0.00 | 0.00 | 0.00 | 70 | 1008.2 |
| 20260901030104 | 65 | 0 | 0.9 | 2.6 | 0.00 | 0.00 | 0.00 | 70 | 1008.2 |
| 20260901025544 | 66 | 309 | 0.0 | 3.5 | 0.00 | 0.00 | 0.00 | 69 | 1008.3 |
| 20260901025046 | 66 | 309 | 0.0 | 4.3 | 0.00 | 0.00 | 0.00 | 69 | 1008.2 |
| 20260901024608 | 66 | 310 | 0.9 | 4.3 | 0.00 | 0.00 | 0.00 | 68 | 1008.2 |
| 20260901024048 | 66 | 306 | 1.7 | 4.3 | 0.00 | 0.00 | 0.00 | 68 | 1008.2 |
| 20260901023546 | 67 | 307 | 1.7 | 6.1 | 0.00 | 0.00 | 0.00 | 68 | 1008.2 |
| 20260901023105 | 67 | 342 | 1.7 | 6.1 | 0.00 | 0.00 | 0.00 | 68 | 1008.2 |
| 20260901022546 | 67 | 318 | 0.9 | 4.3 | 0.00 | 0.00 | 0.00 | 68 | 1008.3 |
| 20260901022046 | 67 | 298 | 0.9 | 4.3 | 0.00 | 0.00 | 0.00 | 68 | 1008.3 |
| 20260901021610 | 68 | 315 | 0.9 | 4.3 | 0.00 | 0.00 | 0.00 | 67 | 1008.2 |
| 20260901021045 | 68 | 314 | 0.0 | 3.5 | 0.00 | 0.00 | 0.00 | 67 | 1008.2 |
| 20260901020547 | 69 | 0 | 0.0 | 3.5 | 0.00 | 0.00 | 0.00 | 67 | 1008.2 |
| 20260901020114 | 69 | 300 | 0.0 | 4.3 | 0.00 | 0.00 | 0.00 | 67 | 1008.3 |
| 20260901015546 | 70 | 309 | 0.9 | 4.3 | 0.00 | 0.00 | 0.00 | 66 | 1008.4 |
| 20260901015046 | 70 | 352 | 0.9 | 4.3 | 0.00 | 0.00 | 0.00 | 65 | 1008.3 |
| 20260901014605 | 70 | 0 | 0.9 | 6.1 | 0.00 | 0.00 | 0.00 | 65 | 1008.3 |
| 20260901014044 | 70 | 0 | 0.9 | 6.1 | 0.00 | 0.00 | 0.00 | 65 | 1008.3 |
| 20260901013547 | 71 | 295 | 1.7 | 6.1 | 0.00 | 0.00 | 0.00 | 63 | 1008.3 |
| 20260901013108 | 71 | 311 | 0.9 | 7.0 | 0.00 | 0.00 | 0.00 | 63 | 1008.3 |
| 20260901012546 | 72 | 318 | 1.7 | 7.0 | 0.00 | 0.00 | 0.00 | 63 | 1008.3 |
| 20260901012049 | 72 | 313 | 1.7 | 7.0 | 0.00 | 0.00 | 0.00 | 62 | 1008.3 |
| 20260901011604 | 72 | 294 | 0.9 | 7.8 | 0.00 | 0.00 | 0.00 | 62 | 1008.3 |
| 20260901011051 | 72 | 297 | 2.6 | 7.8 | 0.00 | 0.00 | 0.00 | 60 | 1008.3 |
| 20260901010550 | 73 | 322 | 1.7 | 7.8 | 0.00 | 0.00 | 0.00 | 59 | 1008.4 |
| 20260901005543 | 73 | 326 | 2.6 | 7.8 | 0.00 | 0.00 | 0.00 | 59 | 1008.3 |
| 20260901005047 | 73 | 293 | 1.7 | 7.8 | 0.00 | 0.00 | 0.00 | 59 | 1008.3 |
| 20260901004607 | 73 | 311 | 2.6 | 7.8 | 0.00 | 0.00 | 0.00 | 59 | 1008.3 |
| 20260901004047 | 74 | 329 | 0.9 | 5.2 | 0.00 | 0.00 | 0.00 | 59 | 1008.3 |
| 20260901003546 | 73 | 283 | 0.9 | 7.0 | 0.00 | 0.00 | 0.00 | 59 | 1008.3 |
| 20260901003104 | 73 | 327 | 2.6 | 7.8 | 0.00 | 0.00 | 0.00 | 59 | 1008.4 |
| 20260901002546 | 73 | 298 | 2.6 | 7.8 | 0.00 | 0.00 | 0.00 | 59 | 1008.4 |
| 20260901002046 | 73 | 314 | 2.6 | 7.8 | 0.00 | 0.00 | 0.00 | 59 | 1008.5 |
| 20260901001605 | 74 | 19 | 2.6 | 7.0 | 0.00 | 0.00 | 0.00 | 59 | 1008.6 |
| 20260901001045 | 74 | 342 | 1.7 | 7.0 | 0.00 | 0.00 | 0.00 | 59 | 1008.7 |
| 20260901000550 | 74 | 35 | 0.9 | 7.0 | 0.00 | 0.00 | 0.00 | 61 | 1008.7 |
| 20260901000104 | 73 | 321 | 2.6 | 7.0 | 0.00 | 0.00 | 0.00 | 61 | 1008.8 |
| 20260831235546 | 73 | 292 | 1.7 | 7.0 | 0.00 | 0.00 | 0.00 | 61 | 1008.8 |
| 20260831235046 | 73 | 317 | 1.7 | 7.0 | 0.00 | 0.00 | 0.00 | 60 | 1008.8 |
| 20260831234606 | 73 | 238 | 1.7 | 7.0 | 0.00 | 0.00 | 0.00 | 62 | 1008.9 |
| 20260831234046 | 73 | 296 | 1.7 | 7.0 | 0.00 | 0.00 | 0.00 | 62 | 1009.0 |
| 20260831233548 | 73 | 0 | 2.6 | 7.0 | 0.00 | 0.00 | 0.00 | 63 | 1009.0 |
| 20260831233103 | 72 | 323 | 1.7 | 7.0 | 0.00 | 0.00 | 0.00 | 64 | 1009.1 |
| 20260831232546 | 73 | 313 | 1.7 | 7.8 | 0.00 | 0.00 | 0.00 | 63 | 1009.2 |
| 20260831232044 | 73 | 331 | 0.9 | 7.8 | 0.00 | 0.00 | 0.00 | 62 | 1009.2 |
| 20260831231609 | 74 | 240 | 2.6 | 7.8 | 0.00 | 0.00 | 0.00 | 61 | 1009.2 |
| 20260831231046 | 74 | 209 | 0.9 | 7.0 | 0.00 | 0.00 | 0.00 | 60 | 1009.3 |
| 20260831230548 | 75 | 213 | 1.7 | 7.0 | 0.00 | 0.00 | 0.00 | 58 | 1009.2 |
| 20260831230108 | 76 | 333 | 1.7 | 6.1 | 0.00 | 0.00 | 0.00 | 58 | 1009.2 |
| 20260831225549 | 75 | 242 | 2.6 | 6.1 | 0.00 | 0.00 | 0.00 | 58 | 1009.2 |
| 20260831225048 | 76 | 279 | 1.7 | 6.1 | 0.00 | 0.00 | 0.00 | 57 | 1009.3 |
| 20260831224606 | 76 | 176 | 0.9 | 7.0 | 0.00 | 0.00 | 0.00 | 55 | 1009.4 |
| 20260831224047 | 76 | 304 | 2.6 | 7.0 | 0.00 | 0.00 | 0.00 | 57 | 1009.5 |
| 20260831223547 | 76 | 310 | 1.7 | 7.0 | 0.00 | 0.00 | 0.00 | 58 | 1009.5 |
| 20260831223104 | 77 | 310 | 0.9 | 6.1 | 0.00 | 0.00 | 0.00 | 57 | 1009.6 |
| 20260831222546 | 76 | 322 | 0.9 | 7.8 | 0.00 | 0.00 | 0.00 | 59 | 1009.8 |
| 20260831222046 | 75 | 195 | 0.0 | 7.8 | 0.00 | 0.00 | 0.00 | 60 | 1009.8 |
| 20260831221610 | 75 | 294 | 1.7 | 7.0 | 0.00 | 0.00 | 0.00 | 60 | 1009.9 |
| 20260831221045 | 74 | 319 | 2.6 | 7.0 | 0.00 | 0.00 | 0.00 | 61 | 1009.9 |
| 20260831220544 | 74 | 269 | 2.6 | 11.3 | 0.00 | 0.00 | 0.00 | 61 | 1010.1 |
| 20260831220131 | 74 | 296 | 2.6 | 11.3 | 0.00 | 0.00 | 0.00 | 61 | 1010.0 |
| 20260831215549 | 74 | 309 | 3.5 | 11.3 | 0.00 | 0.00 | 0.00 | 61 | 1010.0 |
| 20260831215047 | 74 | 199 | 0.9 | 8.7 | 0.00 | 0.00 | 0.00 | 61 | 1010.1 |
| 20260831214603 | 74 | 320 | 1.7 | 8.7 | 0.00 | 0.00 | 0.00 | 61 | 1010.2 |
| 20260831214046 | 73 | 294 | 2.6 | 7.0 | 0.00 | 0.00 | 0.00 | 62 | 1010.5 |
| 20260831213544 | 74 | 300 | 0.9 | 4.3 | 0.00 | 0.00 | 0.00 | 60 | 1010.6 |
| 20260831213107 | 73 | 318 | 0.9 | 7.0 | 0.00 | 0.00 | 0.00 | 64 | 1010.6 |
| 20260831212548 | 72 | 0 | 1.7 | 7.0 | 0.00 | 0.00 | 0.00 | 64 | 1010.5 |
| 20260831212046 | 72 | 284 | 0.9 | 7.0 | 0.00 | 0.00 | 0.00 | 63 | 1010.6 |
| 20260831211603 | 72 | 324 | 1.7 | 7.0 | 0.00 | 0.00 | 0.00 | 64 | 1010.6 |
| 20260831211046 | 72 | 281 | 2.6 | 7.0 | 0.00 | 0.00 | 0.00 | 63 | 1010.7 |
| 20260831210546 | 73 | 73 | 1.7 | 7.8 | 0.00 | 0.00 | 0.00 | 63 | 1010.7 |
| 20260831210103 | 72 | 0 | 1.7 | 7.8 | 0.00 | 0.00 | 0.00 | 62 | 1010.7 |
| 20260831205546 | 72 | 287 | 0.9 | 7.0 | 0.00 | 0.00 | 0.00 | 63 | 1010.7 |
| 20260831205046 | 72 | 322 | 1.7 | 7.8 | 0.00 | 0.00 | 0.00 | 65 | 1010.8 |
| 20260831204602 | 71 | 273 | 0.9 | 7.8 | 0.00 | 0.00 | 0.00 | 66 | 1010.8 |
| 20260831204046 | 71 | 279 | 2.6 | 7.0 | 0.00 | 0.00 | 0.00 | 65 | 1010.9 |
| 20260831203546 | 71 | 360 | 2.6 | 7.0 | 0.00 | 0.00 | 0.00 | 65 | 1010.9 |
| 20260831203134 | 71 | 315 | 1.7 | 7.0 | 0.00 | 0.00 | 0.00 | 63 | 1011.0 |
| 20260831202546 | 72 | 290 | 1.7 | 7.8 | 0.00 | 0.00 | 0.00 | 65 | 1011.1 |
| 20260831202045 | 71 | 273 | 1.7 | 7.8 | 0.00 | 0.00 | 0.00 | 65 | 1011.3 |
| 20260831201606 | 71 | 295 | 2.6 | 7.0 | 0.00 | 0.00 | 0.00 | 65 | 1011.3 |
| 20260831201046 | 71 | 300 | 0.9 | 7.0 | 0.00 | 0.00 | 0.00 | 66 | 1011.3 |
| 20260831200548 | 71 | 310 | 1.7 | 7.0 | 0.00 | 0.00 | 0.00 | 66 | 1011.4 |
| 20260831200104 | 70 | 307 | 3.5 | 7.0 | 0.00 | 0.00 | 0.00 | 66 | 1011.3 |
| 20260831195552 | 70 | 283 | 1.7 | 5.2 | 0.00 | 0.00 | 0.00 | 66 | 1011.4 |
| 20260831195046 | 70 | 225 | 0.0 | 4.3 | 0.00 | 0.00 | 0.00 | 64 | 1011.3 |
| 20260831194611 | 70 | 12 | 1.7 | 4.3 | 0.00 | 0.00 | 0.00 | 65 | 1011.4 |
| 20260831194047 | 70 | 315 | 0.0 | 6.1 | 0.00 | 0.00 | 0.00 | 67 | 1011.5 |
| 20260831193549 | 69 | 0 | 0.9 | 6.1 | 0.00 | 0.00 | 0.00 | 68 | 1011.6 |
| 20260831193101 | 69 | 294 | 0.9 | 4.3 | 0.00 | 0.00 | 0.00 | 67 | 1011.7 |
| 20260831192546 | 69 | 313 | 0.9 | 4.3 | 0.00 | 0.00 | 0.00 | 67 | 1011.8 |
| 20260831192046 | 69 | 319 | 1.7 | 4.3 | 0.00 | 0.00 | 0.00 | 67 | 1011.8 |
| 20260831191606 | 68 | 0 | 0.9 | 4.3 | 0.00 | 0.00 | 0.00 | 68 | 1011.9 |
| 20260831191044 | 68 | 294 | 1.7 | 4.3 | 0.00 | 0.00 | 0.00 | 69 | 1011.9 |
| 20260831190547 | 68 | 304 | 0.0 | 4.3 | 0.00 | 0.00 | 0.00 | 68 | 1012.0 |
| 20260831190137 | 68 | 275 | 0.9 | 6.1 | 0.00 | 0.00 | 0.00 | 69 | 1012.1 |
| 20260831185546 | 67 | 294 | 0.9 | 6.1 | 0.00 | 0.00 | 0.00 | 69 | 1012.1 |
| 20260831185052 | 67 | 325 | 0.0 | 6.1 | 0.00 | 0.00 | 0.00 | 68 | 1012.1 |
| 20260831184609 | 66 | 0 | 2.6 | 6.1 | 0.00 | 0.00 | 0.00 | 68 | 1012.3 |
| 20260831184047 | 66 | 9 | 0.9 | 3.5 | 0.00 | 0.00 | 0.00 | 68 | 1012.3 |
| 20260831183547 | 66 | 0 | 0.9 | 3.5 | 0.00 | 0.00 | 0.00 | 69 | 1012.5 |
| 20260831183101 | 66 | 305 | 0.9 | 3.5 | 0.00 | 0.00 | 0.00 | 68 | 1012.5 |
| 20260831182550 | 65 | 352 | 0.0 | 2.6 | 0.00 | 0.00 | 0.00 | 71 | 1012.7 |
| 20260831182047 | 65 | 50 | 0.0 | 2.6 | 0.00 | 0.00 | 0.00 | 71 | 1012.7 |
| 20260831181604 | 65 | 314 | 0.0 | 3.5 | 0.00 | 0.00 | 0.00 | 71 | 1012.9 |
| 20260831181046 | 65 | 349 | 1.7 | 3.5 | 0.00 | 0.00 | 0.00 | 68 | 1013.0 |
| 20260831180546 | 65 | 0 | 0.0 | 2.6 | 0.00 | 0.00 | 0.00 | 70 | 1013.1 |
| 20260831180107 | 64 | 0 | 0.0 | 2.6 | 0.00 | 0.00 | 0.00 | 71 | 1013.1 |
| 20260831175551 | 64 | 20 | 0.0 | 3.5 | 0.00 | 0.00 | 0.00 | 72 | 1013.2 |
| 20260831175047 | 63 | 19 | 0.0 | 3.5 | 0.00 | 0.00 | 0.00 | 73 | 1013.2 |
| 20260831174602 | 63 | 0 | 0.9 | 3.5 | 0.00 | 0.00 | 0.00 | 73 | 1013.3 |
| 20260831174047 | 62 | 0 | 0.0 | 2.6 | 0.00 | 0.00 | 0.00 | 74 | 1013.3 |
| 20260831173549 | 62 | 336 | 0.9 | 2.6 | 0.00 | 0.00 | 0.00 | 73 | 1013.3 |
| 20260831173111 | 61 | 317 | 0.0 | 3.5 | 0.00 | 0.00 | 0.00 | 77 | 1013.4 |
| 20260831172550 | 61 | 360 | 0.9 | 4.3 | 0.00 | 0.00 | 0.00 | 77 | 1013.4 |
| 20260831172046 | 61 | 0 | 1.7 | 4.3 | 0.00 | 0.00 | 0.00 | 77 | 1013.5 |
| 20260831171607 | 60 | 327 | 0.9 | 2.6 | 0.00 | 0.00 | 0.00 | 78 | 1013.5 |
| 20260831171046 | 60 | 0 | 0.0 | 3.5 | 0.00 | 0.00 | 0.00 | 78 | 1013.6 |
| 20260831170546 | 60 | 326 | 0.9 | 3.5 | 0.00 | 0.00 | 0.00 | 79 | 1013.5 |
| 20260831170057 | 59 | 0 | 0.9 | 2.6 | 0.00 | 0.00 | 0.00 | 77 | 1013.5 |
| 20260831165543 | 59 | 333 | 0.0 | 2.6 | 0.00 | 0.00 | 0.00 | 80 | 1013.5 |
| 20260831165048 | 59 | 333 | 0.9 | 3.5 | 0.00 | 0.00 | 0.00 | 81 | 1013.5 |
| 20260831164604 | 59 | 0 | 0.0 | 3.5 | 0.00 | 0.00 | 0.00 | 82 | 1013.5 |
| 20260831164050 | 58 | 333 | 0.0 | 3.5 | 0.00 | 0.00 | 0.00 | 83 | 1013.6 |
| 20260831163547 | 58 | 333 | 0.0 | 2.6 | 0.00 | 0.00 | 0.00 | 83 | 1013.7 |
| 20260831163105 | 58 | 337 | 0.0 | 2.6 | 0.00 | 0.00 | 0.00 | 83 | 1013.7 |
| 20260831162547 | 57 | 339 | 0.0 | 2.6 | 0.00 | 0.00 | 0.00 | 85 | 1013.6 |
| 20260831162047 | 57 | 0 | 0.9 | 2.6 | 0.00 | 0.00 | 0.00 | 87 | 1013.7 |
| 20260831161608 | 56 | 338 | 0.0 | 2.6 | 0.00 | 0.00 | 0.00 | 88 | 1013.7 |
| 20260831161047 | 56 | 338 | 0.0 | 2.6 | 0.00 | 0.00 | 0.00 | 90 | 1013.8 |
| 20260831160547 | 55 | 338 | 0.9 | 2.6 | 0.00 | 0.00 | 0.00 | 92 | 1013.8 |
| 20260831160135 | 53 | 338 | 0.9 | 2.6 | 0.00 | 0.00 | 0.00 | 94 | 1013.8 |
| 20260831155544 | 53 | 0 | 0.0 | 2.6 | 0.00 | 0.00 | 0.00 | 95 | 1013.8 |
| 20260831155047 | 53 | 338 | 0.0 | 2.6 | 0.00 | 0.00 | 0.00 | 96 | 1013.8 |
| 20260831154631 | 53 | 338 | 0.0 | 2.6 | 0.00 | 0.00 | 0.00 | 96 | 1013.8 |
| 20260831154051 | 52 | 0 | 0.0 | 0.0 | 0.00 | 0.00 | 0.00 | 96 | 1013.9 |
| 20260831153544 | 52 | 0 | 0.0 | 0.9 | 0.00 | 0.00 | 0.00 | 97 | 1013.9 |
| 20260831153133 | 52 | 0 | 0.0 | 0.9 | 0.00 | 0.00 | 0.00 | 97 | 1013.9 |
| 20260831152546 | 51 | 60 | 0.0 | 0.9 | 0.00 | 0.00 | 0.00 | 97 | 1014.0 |
| 20260831152046 | 51 | 0 | 0.0 | 0.9 | 0.00 | 0.00 | 0.00 | 97 | 1013.9 |
| 20260831151603 | 51 | 0 | 0.0 | 1.7 | 0.00 | 0.00 | 0.00 | 97 | 1014.0 |
| 20260831151046 | 51 | 0 | 0.0 | 1.7 | 0.00 | 0.00 | 0.00 | 97 | 1014.0 |
| 20260831150550 | 51 | 0 | 0.0 | 0.9 | 0.00 | 0.00 | 0.00 | 97 | 1014.2 |
| 20260831150100 | 50 | 0 | 0.0 | 0.9 | 0.00 | 0.00 | 0.00 | 97 | 1014.1 |
| 20260831145546 | 50 | 0 | 0.0 | 0.9 | 0.00 | 0.00 | 0.00 | 97 | 1014.1 |
| 20260831145047 | 50 | 0 | 0.0 | 1.7 | 0.00 | 0.00 | 0.00 | 97 | 1014.0 |
| 20260831144607 | 50 | 0 | 0.0 | 1.7 | 0.00 | 0.00 | 0.00 | 97 | 1014.0 |
| 20260831144046 | 50 | 0 | 0.0 | 1.7 | 0.00 | 0.00 | 0.00 | 97 | 1014.0 |